Flag for Poland Weather past 2 weeks in Elbląg, Poland

Now
52 °F

Passing clouds.


Feels Like: 52 °F
Forecast: 48 / 67 °F
Wind: 3 mph from Southeast

Location: Hel

Current Time: May 30, 2015 at 12:49:54 AM

Latest Report: May 30, 2015 at 12:00 AM


Visibility: 16 mi

Pressure: 29.84 "Hg

Humidity: 92%

Dew point: 50 °F

Location of ElblągLocation

Historic Weather in Elbląg — Graph

°F

Elbląg temperature yesterday

Maximum temperature yesterday: 59 °F (at 1:00 PM)
Minimum temperature yesterday: 51 °F (at 10:00 PM)
Average temperature yesterday: 55 °F

Past Weeks' High & Low Weather Summary

 TemperatureHumidityPressure
High70 °F (May 19, 1:00 PM)97% (May 21, 4:00 AM)30.29 "Hg (May 21, 4:00 AM)
Low40 °F (May 25, 4:00 AM)37% (May 15, 5:00 PM)29.61 "Hg (May 19, 1:00 PM)
Average53 °F74%29.97 "Hg
* Reported May 14 10:00 PM — May 29 10:00 PM, Elbląg, Weather by CustomWeather, © 2015

Note: Actual official high and low records may vary slightly from our data, if they occured in-between our weather recording intervals... More about our weather records

Advertising

Elbląg weather history for previous 24 hours

 ConditionsComfort  
Time TempWeatherWind HumidityBarometerVisibility
10:00 PM
Fri, May 29
51 °FOvercast.5 mph83%29.85 "Hg16 mi
9:00 PM52 °FOvercast.3 mph77%29.87 "Hg12 mi
8:00 PM53 °FOvercast.3 mph75%29.88 "Hg12 mi
7:00 PM54 °FOvercast.3 mph75%29.88 "Hg12 mi
6:00 PM56 °FPartly sunny.3 mph73%29.89 "Hg19 mi
5:00 PM56 °FPartly sunny.3 mph72%29.90 "Hg19 mi
4:00 PM56 °FPartly sunny.5 mph72%29.92 "Hg19 mi
3:00 PM56 °FScattered clouds.3 mph71%29.92 "Hg19 mi
2:00 PM57 °FScattered clouds.3 mph66%29.93 "Hg19 mi
1:00 PM59 °FScattered clouds.3 mph57%29.93 "Hg16 mi
12:00 PM58 °FScattered clouds.3 mph64%29.93 "Hg16 mi
11:00 AM58 °FScattered clouds.2 mph61%29.92 "Hg16 mi
10:00 AM57 °FScattered clouds.3 mph64%29.92 "Hg16 mi
9:00 AM56 °FScattered clouds.3 mph72%29.91 "Hg12 mi
8:00 AM53 °FScattered clouds.3 mph81%29.90 "Hg16 mi
7:00 AM52 °FPartly sunny.5 mph84%29.89 "Hg12 mi
6:00 AM51 °FPartly sunny.3 mph84%29.87 "Hg12 mi
5:00 AM51 °FPartly sunny.6 mph87%29.86 "Hg12 mi
4:00 AM53 °FOvercast.5 mph86%29.84 "Hg12 mi
3:00 AM54 °FOvercast.3 mph82%29.83 "Hg12 mi
2:00 AM54 °FOvercast.5 mph79%29.83 "Hg12 mi
Weather by CustomWeather, © 2015

See weather overviewHow to use our weather pages